Regional Weather Roundup
Issued by NWS Columbia, SC

Home | Current Version | Previous Version | Text Only | Print | Product List | Glossary On
Versions: 1 2 3 4 5 6 7 8 9 10 11 12 13 14 15 16 17 18 19 20 21 22 23 24 25 26 27 28 29 30 31 32 33 34 35 36 37 38 39 40 41 42 43 44 45 46 47 48 49 50
000
ASUS42 KCAE 231510
RWRCAE
REGIONAL WEATHER ROUNDUP
NATIONAL WEATHER SERVICE COLUMBIA SC
1100 AM EDT SUN APR 23 2017

NOTE: "FAIR" INDICATES FEW OR NO CLOUDS BELOW 12,000 FEET WITH NO
SIGNIFICANT WEATHER AND/OR OBSTRUCTIONS TO VISIBILITY.

NOT ALL STATIONS ARE QUALITY CONTROLLED BY THE NATIONAL
WEATHER SERVICE. USE DATA WITH CAUTION...ESPECIALLY
DEWPOINT OBSERVATIONS.

SCZ001>056-GAZ040-063>065-077-231600-
...UPSTATE SOUTH CAROLINA...

CITY           SKY/WX    TMP DP  RH WIND       PRES   REMARKS
ANDERSON       HVY RAIN  58  55  90 E18       29.90R FOG
LIBERTY        LGT RAIN  55  53  94 E8        29.92R
SPARTANBURG    LGT RAIN  54  52  94 NE12G18   29.95R
CLEMSON        LGT RAIN  58  53  84 E13G20    29.93R
GREENVILLE     LGT RAIN  55  52  89 NE14      29.93S
GREENWOOD      CLOUDY    59  54  83 NE10      29.93R
GREER          RAIN      54  52  93 NE15G23   29.93R FOG
ROCK HILL      LGT RAIN  54  52  93 VRB7      29.96S
CHESTER        RAIN      54  54 100 NE13G18   29.97R
LAURENS        CLOUDY    55  55 100 E14       29.93R


...CENTRAL SOUTH CAROLINA...

CITY           SKY/WX    TMP DP  RH WIND       PRES   REMARKS
COLUMBIA APT   CLOUDY    68  59  73 NE10      29.89S
COLUMBIA OWENS CLOUDY    67  59  75 VRB7      29.91R
MCENTIRE ANGB  CLOUDY    67  61  80 CALM      29.90R
ORANGEBURG     MOSUNNY   75  64  68 E3        29.87S
SUMTER SHAW    CLOUDY    68  59  74 CALM      29.89R
NEWBERRY       CLOUDY    59  55  88 NE12      29.94F
AIKEN          PTSUNNY   73  63  68 E6        29.91R
BARNWELL       FAIR      79  66  65 CALM      29.87S
MANNING        CLOUDY    73  64  73 E6        29.89S
LANCASTER      CLOUDY    55  55 100 NE9       29.95R
WINNSBORO      CLOUDY    59  55  88 NE13G20   29.93R


...EASTERN AND COASTAL SOUTH CAROLINA...

CITY           SKY/WX    TMP DP  RH WIND       PRES   REMARKS
MYRTLE BEACH   PTSUNNY   70  63  78 NE9       29.94R
N MYRTLE BCH   LGT RAIN  65  62  90 NE13      29.93R
CONWAY         CLOUDY    64  61  88 NE9       29.94R
MARION         CLOUDY    61  55  82 NE10      29.95S
HARTSVILLE     CLOUDY    59  55  88 E13       29.94S
FLORENCE       CLOUDY    63  58  83 NE10      29.94R
DARLINGTON     CLOUDY    60  56  86 NE14      29.96R
CHARLESTON APT MOSUNNY   79  68  69 S8        29.87S
MOUNT PLEASANT FAIR      79  72  78 S8        29.89R
WALTERBORO     SUNNY     79  66  65 S5        29.88S
BEAUFORT       SUNNY     81  71  71 SE5       29.86F


...EASTERN GEORGIA...

CITY           SKY/WX    TMP DP  RH WIND       PRES   REMARKS
AUGUSTA BUSH F MOSUNNY   77  64  64 SE5       29.85S
AUGUSTA DANIEL MOSUNNY   76  61  59 E7        29.87R
THOMSON        MOSUNNY   73  62  67 S7        29.90F
WASHINGTON     FAIR      72  64  78 CALM      29.87R
CLAXTON        FAIR      76  69  79 SE5       29.87S
SYLVANIA       MOSUNNY   82  64  54 CALM      29.86F
STATESBORO     PTSUNNY   80  63  57 S7        29.86S
SAVANNAH       PTSUNNY   81  62  52 SW5       29.87S


...SOUTHERN NORTH CAROLINA...

CITY           SKY/WX    TMP DP  RH WIND       PRES   REMARKS
CHARLOTTE      RAIN      52  49  89 NE13      29.98R FOG
MONROE         LGT RAIN  55  52  89 NE12G17   29.96R
WADESBORO      RAIN      56  54  92 NE8       29.97F
RUTHERFORDTON  RAIN      52  52 100 NE9       29.98F
ASHEVILLE      LGT RAIN  53  49  86 CALM      29.95R

$$



USA.gov is the U.S. government's official web portal to all federal, state and local government web resources and services.